Overview Statistics Trail Chart Weather Telemetry Raw packets
 

This is the latest recevied weather packets stored in our database for station/object KF6RAL-6. If no packets are shown the sender has not sent any weather packets the latest 10 day(s).

<< 49 50 51 52 53 54 55 >>
Time Temp. Humidity Pressure Rain* Wind** Luminosity Snow
1788169656 16.67° C 72% 1015.3 hPa 0 mm - - -
1788169235 16.67° C 71% 1015.4 hPa 0 mm - - -
1788168878 16.67° C 69% 1015.4 hPa 0 mm - - -
1788168814 16.67° C 69% 1015.4 hPa 0 mm - - -
1788168393 16.11° C 71% 1015.4 hPa 0 mm - - -
1788167972 16.67° C 72% 1015.4 hPa 0 mm - - -
1788167551 16.67° C 72% 1015.9 hPa 0 mm - - -
1788167130 17.78° C 71% 1015 hPa 0 mm - - -
1788166709 17.78° C 71% 1015.6 hPa 0 mm - - -
1788166288 18.33° C 70% 1015 hPa 0 mm - - -
1788165867 18.33° C 69% 1014.9 hPa 0 mm - - -
1788165446 18.33° C 70% 1015 hPa 0 mm - - -
1788165025 18.89° C 71% 1015.9 hPa 0 mm - - -
1788164604 18.89° C 70% 1015.8 hPa 0 mm - - -
1788164183 18.89° C 69% 1015.8 hPa 0 mm - - -
1788163762 18.89° C 69% 1015.9 hPa 0 mm - - -
1788163341 18.89° C 69% 1015.9 hPa 0 mm - - -
1788162920 18.89° C 70% 1015.8 hPa 0 mm - - -
1788162499 18.89° C 69% 1015.1 hPa 0 mm - - -
1788162078 19.44° C 67% 1015.8 hPa 0 mm - - -
1788161657 20° C 63% 1015.7 hPa 0 mm - - -
1788161236 20.56° C 62% 1015.3 hPa 0 mm - - -
1788160815 20° C 59% 1015.5 hPa 0 mm - - -
1788160395 20° C 56% 1015.8 hPa 0 mm - - -
1788159973 20° C 59% 1015.5 hPa 0 mm - - -

* Rain latest hour (hover to see other rain measurements)
** Current wind speed in m/s (hover to see current wind gust speed)